Hourly Weather Atyrau

Today, 9 May, Sunday

Time Temperature Precipitation Wind Pressure Humidity
00:00 +18°C° 0 mm 1 mps 764 mmHg 46%
01:00 +18°C° 0 mm 1 mps 764 mmHg 45%
02:00 +18°C° 0 mm 1 mps 764 mmHg 44%
03:00 +18°C° 0 mm 1 mps 764 mmHg 43%
04:00 +18°C° 0 mm 2 mps 764 mmHg 42%
05:00 +18°C° 0 mm 3 mps 764 mmHg 41%
06:00 +19°C° 0 mm 4 mps 764 mmHg 41%
07:00 +21°C° 0 mm 5 mps 764 mmHg 36%
08:00 +23°C° 0 mm 6 mps 764 mmHg 30%
09:00 +26°C° 0 mm 6 mps 764 mmHg 25%
10:00 +26°C° 0 mm 7 mps 763 mmHg 24%
11:00 +27°C° 0 mm 7 mps 763 mmHg 23%
12:00 +28°C° 0 mm 7 mps 763 mmHg 21%
13:00 +28°C° 0 mm 7 mps 762 mmHg 21%
14:00 +28°C° 0 mm 6 mps 762 mmHg 20%
15:00 +29°C° 0 mm 5 mps 762 mmHg 19%
16:00 +28°C° 0 mm 5 mps 761 mmHg 19%
17:00 +28°C° 0 mm 4 mps 761 mmHg 19%
18:00 +28°C° 0 mm 4 mps 761 mmHg 20%
19:00 +27°C° 0 mm 5 mps 761 mmHg 21%
20:00 +26°C° 0 mm 5 mps 761 mmHg 22%
21:00 +24°C° 0 mm 6 mps 761 mmHg 23%
22:00 +24°C° 0 mm 7 mps 761 mmHg 24%
23:00 +23°C° 0 mm 7 mps 761 mmHg 25%

Tomorrow, 10 May, Monday

Time Temperature Precipitation Wind Pressure Humidity
00:00 +23°C° 0 mm 8 mps 761 mmHg 25%
01:00 +22°C° 0 mm 8 mps 761 mmHg 27%
02:00 +22°C° 0 mm 8 mps 760 mmHg 30%
03:00 +21°C° 0 mm 8 mps 760 mmHg 32%
04:00 +21°C° 0 mm 8 mps 761 mmHg 34%
05:00 +22°C° 0 mm 8 mps 761 mmHg 36%
06:00 +22°C° 0 mm 8 mps 761 mmHg 37%
07:00 +23°C° 0 mm 8 mps 761 mmHg 35%
08:00 +24°C° 0 mm 9 mps 761 mmHg 33%
09:00 +26°C° 0 mm 9 mps 761 mmHg 30%
10:00 +26°C° 0 mm 8 mps 761 mmHg 33%
11:00 +26°C° 0 mm 7 mps 762 mmHg 35%
12:00 +26°C° 0 mm 5 mps 762 mmHg 37%
13:00 +25°C° 0 mm 5 mps 762 mmHg 43%
14:00 +23°C° 0 mm 5 mps 762 mmHg 49%
15:00 +22°C° 0 mm 5 mps 762 mmHg 55%
16:00 +20°C° 0 mm 6 mps 763 mmHg 59%
17:00 +17°C° 0 mm 7 mps 763 mmHg 63%
18:00 +15°C° 0 mm 8 mps 764 mmHg 67%
19:00 +13°C° 0 mm 8 mps 764 mmHg 69%
20:00 +12°C° 0 mm 8 mps 765 mmHg 71%
21:00 +11°C° 0 mm 7 mps 765 mmHg 73%
22:00 +11°C° 0 mm 7 mps 765 mmHg 71%
23:00 +11°C° 0 mm 7 mps 766 mmHg 69%

Day after tomorrow, 11 May, Tuesday

Time Temperature Precipitation Wind Pressure Humidity
00:00 +11°C° 0 mm 6 mps 766 mmHg 68%
01:00 +11°C° 0 mm 6 mps 766 mmHg 66%
02:00 +12°C° 0 mm 5 mps 766 mmHg 64%
03:00 +12°C° 0 mm 5 mps 767 mmHg 62%
04:00 +13°C° 0 mm 5 mps 767 mmHg 60%
05:00 +13°C° 0 mm 5 mps 767 mmHg 58%
06:00 +13°C° 0 mm 6 mps 767 mmHg 56%
07:00 +14°C° 0.1 mm 5 mps 767 mmHg 55%
08:00 +15°C° 0.1 mm 5 mps 767 mmHg 55%
09:00 +17°C° 0.1 mm 4 mps 767 mmHg 55%
10:00 +18°C° 0.1 mm 4 mps 767 mmHg 55%
11:00 +18°C° 0.1 mm 4 mps 766 mmHg 54%
12:00 +19°C° 0.1 mm 3 mps 766 mmHg 54%
13:00 +19°C° 0.2 mm 4 mps 766 mmHg 56%
14:00 +19°C° 0.2 mm 4 mps 766 mmHg 58%
15:00 +19°C° 0.2 mm 4 mps 765 mmHg 60%
16:00 +20°C° 0 mm 5 mps 765 mmHg 57%
17:00 +20°C° 0 mm 5 mps 765 mmHg 54%
18:00 +21°C° 0 mm 5 mps 764 mmHg 52%
19:00 +20°C° 0 mm 4 mps 765 mmHg 55%
20:00 +19°C° 0 mm 4 mps 765 mmHg 59%
21:00 +18°C° 0 mm 3 mps 765 mmHg 63%
22:00 +18°C° 0 mm 3 mps 765 mmHg 60%
23:00 +18°C° 0 mm 4 mps 765 mmHg 56%

12 May, Wednesday

Time Temperature Precipitation Wind Pressure Humidity
00:00 +19°C° 0 mm 4 mps 765 mmHg 53%
01:00 +20°C° 0 mm 5 mps 765 mmHg 50%
02:00 +20°C° 0 mm 7 mps 765 mmHg 47%
03:00 +21°C° 0 mm 8 mps 766 mmHg 44%
04:00 +21°C° 0 mm 8 mps 766 mmHg 44%
05:00 +21°C° 0 mm 8 mps 766 mmHg 44%
06:00 +22°C° 0 mm 9 mps 766 mmHg 45%
07:00 +23°C° 0 mm 9 mps 767 mmHg 40%
08:00 +26°C° 0 mm 9 mps 767 mmHg 35%
09:00 +27°C° 0 mm 10 mps 767 mmHg 30%
10:00 +28°C° 0 mm 9 mps 767 mmHg 28%
11:00 +29°C° 0 mm 9 mps 767 mmHg 26%
12:00 +31°C° 0 mm 8 mps 766 mmHg 24%
13:00 +32°C° 0 mm 8 mps 766 mmHg 23%
14:00 +32°C° 0 mm 8 mps 766 mmHg 22%
15:00 +32°C° 0 mm 7 mps 766 mmHg 22%
16:00 +30°C° 0 mm 6 mps 766 mmHg 25%
17:00 +29°C° 0 mm 5 mps 766 mmHg 28%
18:00 +28°C° 0 mm 4 mps 766 mmHg 31%
19:00 +28°C° 0 mm 4 mps 765 mmHg 31%
20:00 +27°C° 0 mm 4 mps 765 mmHg 31%
21:00 +26°C° 0 mm 4 mps 765 mmHg 32%
22:00 +26°C° 0 mm 5 mps 765 mmHg 32%
23:00 +26°C° 0 mm 6 mps 765 mmHg 33%

13 May, Thursday

Time Temperature Precipitation Wind Pressure Humidity
00:00 +24°C° 0 mm 7 mps 765 mmHg 34%
01:00 +24°C° 0.2 mm 7 mps 766 mmHg 36%
02:00 +23°C° 0.2 mm 7 mps 766 mmHg 38%
03:00 +22°C° 0.2 mm 8 mps 766 mmHg 39%
04:00 +23°C° 0 mm 8 mps 766 mmHg 36%
05:00 +23°C° 0 mm 8 mps 766 mmHg 33%
06:00 +23°C° 0 mm 9 mps 767 mmHg 29%
07:00 +26°C° 0 mm 9 mps 767 mmHg 26%
08:00 +27°C° 0 mm 9 mps 767 mmHg 23%
09:00 +28°C° 0 mm 9 mps 767 mmHg 19%
10:00 +29°C° 0 mm 9 mps 767 mmHg 17%
11:00 +31°C° 0 mm 8 mps 767 mmHg 16%
12:00 +32°C° 0 mm 7 mps 767 mmHg 14%
13:00 +33°C° 0 mm 7 mps 767 mmHg 13%
14:00 +33°C° 0 mm 7 mps 767 mmHg 13%
15:00 +33°C° 0 mm 7 mps 767 mmHg 12%
16:00 +33°C° 0 mm 6 mps 767 mmHg 12%
17:00 +32°C° 0 mm 6 mps 767 mmHg 13%
18:00 +32°C° 0 mm 6 mps 767 mmHg 13%
19:00 +29°C° 0 mm 6 mps 767 mmHg 15%
20:00 +28°C° 0 mm 6 mps 767 mmHg 16%
21:00 +26°C° 0 mm 5 mps 767 mmHg 18%
22:00 +25°C° 0 mm 5 mps 767 mmHg 20%
23:00 +23°C° 0 mm 5 mps 768 mmHg 22%

14 May, Friday

Time Temperature Precipitation Wind Pressure Humidity
00:00 +23°C° 0 mm 5 mps 768 mmHg 24%
01:00 +22°C° 0 mm 5 mps 768 mmHg 26%
02:00 +22°C° 0 mm 5 mps 768 mmHg 28%
03:00 +21°C° 0 mm 4 mps 768 mmHg 30%
04:00 +22°C° 0 mm 5 mps 769 mmHg 30%
05:00 +22°C° 0 mm 5 mps 769 mmHg 29%
06:00 +23°C° 0 mm 5 mps 769 mmHg 29%
07:00 +26°C° 0 mm 5 mps 769 mmHg 26%
08:00 +28°C° 0 mm 6 mps 769 mmHg 24%
09:00 +30°C° 0 mm 6 mps 769 mmHg 22%
10:00 +30°C° 0 mm 6 mps 769 mmHg 21%
11:00 +32°C° 0 mm 6 mps 769 mmHg 21%
12:00 +33°C° 0 mm 6 mps 768 mmHg 20%
13:00 +33°C° 0 mm 6 mps 768 mmHg 20%
14:00 +33°C° 0 mm 6 mps 768 mmHg 19%
15:00 +33°C° 0 mm 6 mps 768 mmHg 18%
16:00 +33°C° 0 mm 5 mps 768 mmHg 19%
17:00 +32°C° 0 mm 5 mps 768 mmHg 20%
18:00 +32°C° 0 mm 5 mps 768 mmHg 21%
19:00 +29°C° 0 mm 4 mps 768 mmHg 24%
20:00 +28°C° 0 mm 4 mps 768 mmHg 27%
21:00 +26°C° 0 mm 4 mps 768 mmHg 29%
22:00 +26°C° 0 mm 4 mps 768 mmHg 29%
23:00 +25°C° 0 mm 4 mps 768 mmHg 29%
Show more